Englewood, CO

12:42 PM MST on January 23, 2017 (GMT -0700)
Centennial

Weather History for KAPA - May, 2013

Change the Weather History Date:

Sunday, May 19, 2013

  Actual Average Record
Temperature  
Mean Temperature 57 °F -  
Max Temperature 69 °F 69 °F 86 °F (2006)
Min Temperature 45 °F 41 °F 37 °F (2000)
Degree Days  
Heating Degree Days 8    
Month to date heating degree days 234  
Growing Degree Days 7 (Base 50)    
Moisture  
Dew Point 33 °F    
Average Humidity 46    
Maximum Humidity 71    
Minimum Humidity 21    
Precipitation  
Precipitation T in - - ()
Month to date precipitation 1.56  
Year to date precipitation 4.52  
Sea Level Pressure  
Sea Level Pressure 29.72 in    
Wind  
Wind Speed 6 mph (SW)    
Max Wind Speed 23 mph    
Max Gust Speed 28 mph    
Visibility 10 miles    
Events      
Averages and records for this station are not official NWS values.
T = Trace of Precipitation, MM = Missing Value Source: NWS Daily Summary

Daily Weather History Graph

Daily Weather History Graph

Search for Another Location

Airport or City:

Trip Planner

Search our weather history database for the weather conditions in past years. The results will help you decide how hot, cold, wet, or windy it might be!

Date:

Astronomy

May. 19, 2013 Rise Set
Actual Time 5:41 AM MDT 8:10 PM MDT
Civil Twilight 5:10 AM MDT 8:41 PM MDT
Nautical Twilight 4:32 AM MDT 9:19 PM MDT
Astronomical Twilight 3:50 AM MDT 10:02 PM MDT
Moon 2:18 PM MDT (5/19) 2:04 AM MDT (5/19)
Length of Visible Light 15h 30m
Length of Day
14h 29m
Waxing Gibbous, 66% of the Moon is Illuminated
May 19
Waxing Gibbous
May 24
Full
May 31
Last Quarter
Jun 8
New
Jun 16
First Quarter

Hourly Weather History & Observations

Time (MDT) Temp. Windchill Dew Point Humidity Pressure Visibility Wind Dir Wind Speed Gust Speed Precip Events Conditions
12:53 AM 48.0 °F - 37.0 °F 66% 29.74 in 10.0 mi Calm Calm - N/A   Scattered Clouds
1:53 AM 46.0 °F 43.9 °F 37.0 °F 71% 29.74 in 10.0 mi West 4.6 mph - N/A   Scattered Clouds
2:53 AM 48.0 °F - 37.0 °F 66% 29.74 in 10.0 mi South 4.6 mph - N/A   Scattered Clouds
3:53 AM 46.9 °F - 37.9 °F 71% 29.73 in 10.0 mi SE 6.9 mph - N/A   Mostly Cloudy
4:53 AM 48.9 °F - 37.9 °F 66% 29.72 in 10.0 mi SSE 3.5 mph - 0.00 in   Mostly Cloudy
6:53 AM 50.0 °F - 39.0 °F 66% 29.75 in 10.0 mi East 3.5 mph - N/A   Mostly Cloudy
7:53 AM 54.0 °F - 33.1 °F 45% 29.73 in 10.0 mi West 5.8 mph - N/A   Mostly Cloudy
8:53 AM 57.9 °F - 30.0 °F 35% 29.72 in 10.0 mi NW 6.9 mph - N/A   Mostly Cloudy
9:53 AM 60.1 °F - 30.0 °F 32% 29.71 in 10.0 mi NW 5.8 mph - N/A   Mostly Cloudy
10:53 AM 61.0 °F - 27.0 °F 27% 29.70 in 10.0 mi Variable 3.5 mph - N/A   Mostly Cloudy
11:53 AM 63.0 °F - 28.0 °F 27% 29.69 in 10.0 mi Variable 4.6 mph - N/A   Mostly Cloudy
1:53 PM 63.0 °F - 26.1 °F 25% 29.69 in 10.0 mi ENE 8.1 mph 18.4 mph N/A   Mostly Cloudy
2:53 PM 64.9 °F - 25.0 °F 22% 29.66 in 10.0 mi NW 10.4 mph 18.4 mph N/A   Mostly Cloudy
3:53 PM 68.0 °F - 26.1 °F 21% 29.65 in 10.0 mi NNW 11.5 mph - N/A   Mostly Cloudy
4:53 PM 64.9 °F - 28.9 °F 26% 29.67 in 10.0 mi North 15.0 mph 27.6 mph N/A   Mostly Cloudy
5:53 PM 63.0 °F - 30.0 °F 29% 29.70 in 10.0 mi NNE 15.0 mph - N/A   Mostly Cloudy
6:53 PM 63.0 °F - 25.0 °F 24% 29.70 in 10.0 mi NNW 13.8 mph - N/A   Mostly Cloudy
7:53 PM 54.0 °F - 37.0 °F 53% 29.77 in 10.0 mi East 13.8 mph 19.6 mph N/A   Mostly Cloudy
8:53 PM 52.0 °F - 37.9 °F 59% 29.77 in 10.0 mi SSE 9.2 mph - N/A   Scattered Clouds
9:53 PM 48.9 °F - 37.0 °F 64% 29.79 in 10.0 mi South 8.1 mph - N/A   Partly Cloudy
10:53 PM 50.0 °F - 36.0 °F 59% 29.78 in 10.0 mi SSW 8.1 mph - N/A   Partly Cloudy
11:53 PM 48.9 °F - 36.0 °F 61% 29.77 in 10.0 mi South 9.2 mph - N/A   Partly Cloudy